TimeMDT,TemperatureF,Dew PointF,Humidity,Sea Level PressureIn,VisibilityMPH,Wind Direction,Wind SpeedMPH,Gust SpeedMPH,PrecipitationIn,Events,Conditions,WindDirDegrees,DateUTC
12:15 AM,55.6,41.4,59,30.22,10.0,South,13.8,19.6,N/A,,Overcast,180,2013-09-19 06:15:00
12:35 AM,55.6,42.6,62,30.24,10.0,WNW,4.6,-,N/A,,Overcast,290,2013-09-19 06:35:00
12:55 AM,55.4,42.1,61,30.25,10.0,WSW,10.4,-,N/A,,Mostly Cloudy,240,2013-09-19 06:55:00
1:15 AM,55.8,42.1,60,30.24,10.0,WSW,5.8,-,N/A,,Scattered Clouds,240,2013-09-19 07:15:00
1:35 AM,55.4,43.3,64,30.24,10.0,WNW,11.5,-,N/A,,Scattered Clouds,290,2013-09-19 07:35:00
1:55 AM,54.5,44.6,69,30.24,10.0,West,10.4,-,N/A,,Clear,270,2013-09-19 07:55:00
2:15 AM,53.1,45.7,76,30.24,10.0,SW,6.9,-,N/A,,Clear,230,2013-09-19 08:15:00
2:35 AM,52.2,45.5,78,30.23,10.0,WNW,8.1,-,N/A,,Clear,290,2013-09-19 08:35:00
2:55 AM,52.7,44.6,74,30.23,10.0,WNW,10.4,-,N/A,,Clear,300,2013-09-19 08:55:00
3:15 AM,51.6,43.7,74,30.24,10.0,West,9.2,-,N/A,,Clear,280,2013-09-19 09:15:00
3:35 AM,51.8,43.9,74,30.25,10.0,West,9.2,-,N/A,,Scattered Clouds,270,2013-09-19 09:35:00
3:55 AM,51.1,43.7,76,30.23,10.0,WSW,5.8,-,N/A,,Mostly Cloudy,250,2013-09-19 09:55:00
4:15 AM,50.0,43.7,79,30.22,10.0,North,5.8,-,N/A,,Scattered Clouds,360,2013-09-19 10:15:00
4:35 AM,49.6,44.1,81,30.22,10.0,NW,9.2,-,N/A,,Clear,320,2013-09-19 10:35:00
4:55 AM,49.3,43.7,81,30.22,10.0,NNW,9.2,-,N/A,,Clear,340,2013-09-19 10:55:00
5:15 AM,49.3,43.5,81,30.23,10.0,NW,5.8,-,N/A,,Clear,310,2013-09-19 11:15:00
5:35 AM,48.9,43.0,80,30.24,10.0,NW,8.1,-,N/A,,Clear,310,2013-09-19 11:35:00
5:55 AM,48.4,42.8,81,30.24,10.0,Calm,Calm,-,N/A,,Clear,0,2013-09-19 11:55:00
6:15 AM,46.9,42.8,86,30.24,10.0,NW,8.1,-,N/A,,Clear,320,2013-09-19 12:15:00
6:35 AM,47.8,42.6,82,30.24,10.0,North,4.6,-,N/A,,Scattered Clouds,350,2013-09-19 12:35:00
6:55 AM,47.3,42.6,84,30.25,10.0,WNW,3.5,-,N/A,,Scattered Clouds,300,2013-09-19 12:55:00
7:15 AM,46.6,42.8,87,30.25,10.0,NNW,5.8,-,N/A,,Clear,330,2013-09-19 13:15:00
7:35 AM,47.7,42.1,81,30.25,10.0,North,5.8,-,N/A,,Clear,360,2013-09-19 13:35:00
7:55 AM,48.2,42.6,81,30.27,10.0,Calm,Calm,-,N/A,,Clear,0,2013-09-19 13:55:00
8:15 AM,49.3,43.0,79,30.28,10.0,Calm,Calm,-,N/A,,Clear,0,2013-09-19 14:15:00
8:35 AM,50.5,43.2,76,30.29,10.0,NNW,3.5,-,N/A,,Clear,340,2013-09-19 14:35:00
8:55 AM,51.8,43.7,74,30.29,10.0,Calm,Calm,-,N/A,,Clear,0,2013-09-19 14:55:00
9:15 AM,53.4,43.9,70,30.29,10.0,Calm,Calm,-,N/A,,Clear,0,2013-09-19 15:15:00
9:35 AM,54.9,44.4,68,30.27,10.0,Calm,Calm,-,N/A,,Clear,0,2013-09-19 15:35:00
9:55 AM,57.2,43.7,61,30.27,10.0,Calm,Calm,-,N/A,,Clear,0,2013-09-19 15:55:00
10:15 AM,58.5,45.1,61,30.27,10.0,NNE,3.5,-,N/A,,Scattered Clouds,30,2013-09-19 16:15:00
10:35 AM,61.7,45.3,55,30.27,10.0,NNE,4.6,-,N/A,,Scattered Clouds,20,2013-09-19 16:35:00
10:55 AM,63.7,44.1,49,30.26,10.0,ESE,4.6,-,N/A,,Clear,110,2013-09-19 16:55:00
11:15 AM,64.6,45.1,49,30.25,10.0,ESE,8.1,-,N/A,,Scattered Clouds,120,2013-09-19 17:15:00
11:35 AM,67.3,43.3,42,30.25,10.0,South,11.5,19.6,N/A,,Scattered Clouds,170,2013-09-19 17:35:00
11:55 AM,66.9,43.3,42,30.25,10.0,SSE,12.7,20.7,N/A,,Mostly Cloudy,160,2013-09-19 17:55:00
12:15 PM,66.7,43.0,42,30.24,10.0,South,15.0,20.7,N/A,,Scattered Clouds,170,2013-09-19 18:15:00
12:35 PM,68.2,43.9,41,30.24,10.0,SSE,15.0,21.9,N/A,,Scattered Clouds,160,2013-09-19 18:35:00
12:55 PM,68.5,44.2,42,30.24,10.0,SSW,13.8,21.9,N/A,,Scattered Clouds,210,2013-09-19 18:55:00
1:15 PM,69.4,42.1,37,30.24,10.0,South,12.7,19.6,N/A,,Scattered Clouds,180,2013-09-19 19:15:00
1:35 PM,70.0,41.0,35,30.23,10.0,SW,8.1,17.3,N/A,,Scattered Clouds,220,2013-09-19 19:35:00
1:55 PM,70.7,38.1,30,30.22,10.0,South,9.2,18.4,N/A,,Clear,170,2013-09-19 19:55:00
2:15 PM,72.0,38.8,30,30.22,10.0,SW,9.2,18.4,N/A,,Clear,220,2013-09-19 20:15:00
2:35 PM,73.2,30.2,20,30.22,10.0,WSW,18.4,23.0,N/A,,Clear,240,2013-09-19 20:35:00
2:55 PM,73.0,32.0,22,30.21,10.0,SSW,10.4,23.0,N/A,,Clear,200,2013-09-19 20:55:00
3:15 PM,73.6,25.7,17,30.20,10.0,West,9.2,19.6,N/A,,Clear,260,2013-09-19 21:15:00
3:35 PM,74.8,21.7,14,30.20,10.0,WSW,13.8,23.0,N/A,,Clear,250,2013-09-19 21:35:00
3:55 PM,74.8,18.0,12,30.20,10.0,WSW,11.5,20.7,N/A,,Clear,250,2013-09-19 21:55:00
4:15 PM,73.9,15.1,11,30.20,10.0,West,11.5,21.9,N/A,,Clear,270,2013-09-19 22:15:00
4:35 PM,74.3,20.3,13,30.20,10.0,West,12.7,17.3,N/A,,Clear,260,2013-09-19 22:35:00
4:55 PM,73.6,23.0,15,30.20,10.0,WSW,11.5,-,N/A,,Clear,250,2013-09-19 22:55:00
5:15 PM,72.9,26.1,18,30.20,10.0,WSW,10.4,18.4,N/A,,Clear,240,2013-09-19 23:15:00
5:35 PM,72.5,27.5,19,30.21,10.0,WSW,10.4,-,N/A,,Clear,250,2013-09-19 23:35:00
5:55 PM,71.6,28.6,20,30.21,10.0,West,9.2,-,N/A,,Clear,260,2013-09-19 23:55:00
6:15 PM,68.9,39.2,34,30.23,10.0,SSE,6.9,-,N/A,,Scattered Clouds,150,2013-09-20 00:15:00
6:35 PM,64.2,42.6,45,30.23,10.0,SE,12.7,21.9,N/A,,Mostly Cloudy,130,2013-09-20 00:35:00
6:55 PM,62.2,43.0,49,30.24,10.0,SE,15.0,20.7,N/A,,Mostly Cloudy,130,2013-09-20 00:55:00
7:15 PM,61.7,42.3,49,30.25,10.0,SE,17.3,24.2,N/A,,Scattered Clouds,130,2013-09-20 01:15:00
7:35 PM,60.1,43.5,54,30.26,10.0,ESE,13.8,25.3,N/A,,Clear,120,2013-09-20 01:35:00
7:55 PM,59.0,44.2,58,30.27,10.0,SE,13.8,23.0,N/A,,Clear,130,2013-09-20 01:55:00
8:15 PM,58.5,44.6,60,30.29,10.0,SE,8.1,23.0,N/A,,Clear,130,2013-09-20 02:15:00
8:35 PM,57.4,45.0,63,30.30,10.0,SE,8.1,-,N/A,,Clear,130,2013-09-20 02:35:00
8:55 PM,57.2,45.0,64,30.32,10.0,SE,8.1,-,N/A,,Clear,140,2013-09-20 02:55:00
9:15 PM,56.3,45.5,67,30.32,10.0,ESE,6.9,-,N/A,,Clear,120,2013-09-20 03:15:00
9:35 PM,56.5,45.5,67,30.33,10.0,SE,9.2,-,N/A,,Clear,130,2013-09-20 03:35:00
9:55 PM,54.5,42.1,63,30.33,10.0,SSW,5.8,-,N/A,,Clear,210,2013-09-20 03:55:00
10:15 PM,55.2,43.9,66,30.34,10.0,SSE,5.8,-,N/A,,Clear,160,2013-09-20 04:15:00
10:35 PM,53.4,42.1,65,30.35,10.0,South,4.6,-,N/A,,Clear,170,2013-09-20 04:35:00
10:55 PM,53.6,41.4,63,30.35,10.0,SSW,4.6,-,N/A,,Clear,200,2013-09-20 04:55:00
11:15 PM,51.1,40.5,67,30.35,10.0,SW,5.8,-,N/A,,Clear,220,2013-09-20 05:15:00
11:35 PM,49.5,40.3,71,30.35,10.0,SW,8.1,-,N/A,,Clear,230,2013-09-20 05:35:00
11:55 PM,49.6,40.1,70,30.36,10.0,SW,4.6,-,N/A,,Clear,220,2013-09-20 05:55:00